ECMWFFLT1_500_spd_132.txt.gz
Wind_Speed
22 22 22 21 19 19 20 20 20 20 21 21 19 19 18 18 17 18 18 19 19 18 17 16 16 15 14 14 14 14 13 13 13 13 12 12 12 11 10 10 9 9 9 9 8 8 7 8 8 8 8 9 9 10 10 11 11 11 11 11 11 11 11
24 22 22 22 20 19 20 21 20 21 22 22 20 19 19 18 18 18 18 19 19 19 19 17 16 16 15 15 15 15 14 14 14 14 13 12 12 12 11 11 11 11 11 11 10 10 9 9 9 9 9 9 9 10 10 11 11 10 11 11 11 11 10
23 22 22 22 21 20 21 21 21 22 22 22 21 20 20 20 19 19 19 19 19 19 19 19 18 17 16 16 15 15 15 15 15 14 14 13 13 12 12 12 13 13 13 12 12 11 11 11 10 10 10 10 10 10 11 11 11 11 10 11 11 11 11
17 18 20 23 24 23 23 23 23 23 22 22 22 22 22 21 21 20 19 18 18 19 19 19 18 18 18 17 16 16 16 15 15 15 14 14 14 14 13 14 14 13 13 13 13 13 12 12 11 11 11 11 11 11 11 11 11 11 11 11 11 11 11
15 17 18 23 25 24 23 23 24 23 23 22 23 23 23 22 21 21 20 18 18 18 18 18 18 18 18 18 17 16 16 16 15 15 15 15 15 15 14 14 14 13 13 13 12 12 12 12 12 12 12 11 11 12 12 12 12 12 11 11 11 11 11
19 20 20 22 24 23 23 23 24 24 23 23 24 24 24 24 23 22 21 20 18 18 17 17 18 18 19 19 18 18 17 16 16 16 16 16 16 16 16 15 14 14 13 13 12 12 12 12 12 12 12 12 11 12 12 12 12 12 12 11 11 11 11
22 23 22 21 21 21 22 23 24 23 24 24 24 24 25 25 25 24 23 22 20 19 18 18 18 19 19 20 20 20 19 18 17 17 17 17 17 17 17 16 16 15 14 13 12 12 11 11 12 12 12 12 12 12 12 12 12 11 11 11 10 10 10
23 24 23 22 22 21 22 24 24 24 24 23 23 24 24 25 26 26 25 24 23 22 21 20 19 19 20 20 20 21 21 20 19 19 19 19 18 18 18 18 17 16 16 15 14 13 13 12 12 12 12 12 12 12 12 12 12 11 11 10 10 10 10
23 24 24 24 23 23 24 25 25 25 24 24 24 25 25 25 25 26 26 26 25 25 24 23 22 21 21 20 20 21 21 22 22 21 21 21 20 20 19 19 18 18 17 17 16 16 15 15 14 14 13 13 13 13 13 12 12 11 11 10 11 11 10
23 24 25 24 24 24 25 27 27 25 24 24 25 26 25 25 25 26 26 27 27 27 27 26 25 24 23 22 21 21 21 22 22 23 23 23 23 22 21 20 19 19 19 19 18 18 17 17 16 16 15 14 14 13 13 13 12 11 11 11 11 11 11
23 23 24 24 25 25 25 27 27 27 26 25 26 27 26 25 25 25 26 26 27 27 27 26 26 26 26 25 24 23 22 22 22 23 24 25 25 24 23 22 21 21 20 20 20 19 19 19 18 18 17 17 16 16 15 14 14 13 12 13 13 12 12
24 24 24 24 24 24 24 25 26 27 26 26 27 27 26 26 26 25 25 26 26 26 26 26 27 27 28 28 27 25 24 23 23 24 25 25 26 25 24 24 23 23 22 21 21 21 20 20 20 20 19 19 19 18 18 17 16 16 15 15 15 14 14
24 24 24 24 25 24 24 24 24 24 24 25 27 28 28 27 27 27 26 27 27 27 27 27 27 27 27 28 28 28 27 26 25 25 26 26 26 26 25 25 25 24 23 23 23 22 22 22 21 21 21 21 20 20 19 19 18 18 17 17 17 16 16
25 25 25 25 25 24 23 23 23 23 23 24 26 27 28 28 28 29 29 30 29 29 28 28 26 26 27 27 27 28 29 29 28 28 27 27 27 27 26 26 26 25 25 24 24 24 24 23 23 23 23 22 22 21 21 20 20 19 18 18 18 18 17
26 27 27 26 25 24 23 22 22 22 22 24 25 26 26 28 29 30 31 32 32 30 29 28 27 27 27 26 26 26 27 29 30 30 30 29 29 28 27 27 26 26 26 25 25 25 25 25 25 25 24 24 23 22 22 21 21 20 19 19 19 19 19
28 29 29 29 28 26 25 23 22 22 21 22 24 26 26 26 28 28 29 31 31 31 30 29 28 28 28 27 27 27 27 28 29 30 31 31 31 30 29 28 27 27 27 27 27 27 27 27 27 27 26 26 25 24 23 23 22 21 21 20 21 20 20
29 30 30 30 29 28 27 26 24 23 22 21 22 24 25 24 25 26 27 28 29 30 30 30 30 30 30 31 30 29 29 29 29 29 29 30 31 31 32 31 30 29 28 28 28 28 28 29 28 28 28 27 27 26 25 24 23 23 23 22 22 22 21
29 31 31 31 30 29 28 28 27 27 25 23 22 23 24 23 23 23 25 26 28 30 32 32 32 32 33 33 33 32 32 31 30 29 28 29 30 31 33 34 33 32 31 31 30 30 30 30 30 29 29 28 28 27 26 25 25 26 25 24 24 24 23
28 29 32 32 31 30 30 30 30 30 29 27 25 25 25 25 24 23 24 25 27 30 32 34 34 35 35 35 35 35 34 34 33 33 32 32 31 32 34 36 36 35 34 33 33 32 32 31 31 31 30 29 29 28 26 26 27 28 27 26 26 26 25
28 27 29 30 30 30 31 31 32 32 32 32 30 29 28 28 28 28 27 27 27 29 30 33 35 36 36 36 37 36 36 36 37 37 36 37 36 36 36 36 35 35 35 35 35 34 34 34 33 32 31 31 30 28 27 28 29 29 28 28 27 27 27
30 27 27 27 28 30 31 32 33 34 34 34 34 33 32 32 32 32 31 30 30 30 30 31 33 36 38 38 38 37 37 37 37 36 36 37 38 38 39 39 38 36 36 37 36 35 35 35 35 35 34 33 31 29 29 30 30 30 29 29 28 28 27
31 29 28 28 29 31 32 32 33 35 35 36 36 35 35 34 34 33 33 33 33 32 31 30 32 35 38 39 39 38 38 37 36 35 34 34 35 36 38 41 43 40 39 39 40 39 39 37 36 36 36 35 32 31 31 31 31 30 30 29 28 28 27
34 31 31 31 32 33 34 33 33 34 35 36 36 36 35 34 34 33 33 34 34 34 34 32 32 33 34 36 38 39 38 37 37 36 35 34 34 35 35 38 41 41 41 42 43 43 42 40 37 38 38 36 34 33 33 32 31 31 31 30 30 29 28
36 35 35 34 34 35 36 35 34 34 35 35 35 35 34 33 32 32 32 33 34 35 35 35 33 32 32 33 35 36 35 34 34 35 35 34 34 34 34 35 36 37 39 43 46 46 44 40 38 37 37 36 36 35 35 35 33 33 32 31 31 30 30
37 38 39 38 38 38 38 37 35 34 35 35 34 34 34 33 31 31 32 33 34 35 36 36 34 33 32 32 33 33 30 28 28 30 32 31 31 31 30 30 32 33 35 37 43 47 45 41 39 38 36 36 36 36 36 36 35 34 33 33 33 32 32
39 40 41 42 42 41 40 39 37 36 35 35 34 33 33 33 32 31 32 32 32 33 35 36 35 34 33 33 33 33 32 29 26 26 28 28 28 26 24 23 24 26 25 24 29 38 42 41 39 39 37 37 36 36 36 36 36 36 35 34 34 33 33
40 41 42 43 44 43 43 41 38 36 35 35 34 33 33 32 31 31 31 32 32 32 33 34 34 33 32 32 31 31 33 33 30 28 27 27 26 25 23 21 20 19 18 16 15 22 31 35 38 39 38 37 36 35 35 35 35 35 35 35 35 34 34
42 43 44 45 45 44 43 42 40 37 36 36 35 34 34 33 31 30 30 32 32 33 33 33 33 34 35 34 31 29 30 32 32 29 28 28 28 26 25 24 22 20 21 19 16 17 21 24 28 32 35 36 36 36 36 36 36 36 36 36 36 35 35
43 44 45 47 47 47 45 43 40 38 38 38 37 36 35 35 33 32 31 31 32 32 32 32 33 35 36 35 33 31 31 31 31 30 29 29 29 29 29 28 26 25 24 23 23 22 21 20 20 22 24 27 30 32 33 33 33 34 34 34 34 35 36
42 44 44 45 47 49 48 45 43 41 41 41 39 38 37 36 35 34 33 33 32 31 30 30 31 33 34 34 33 32 31 30 28 28 30 31 31 31 32 31 28 26 25 24 24 23 22 21 21 20 19 19 21 23 23 24 24 24 25 27 29 32 33
43 45 45 43 43 47 50 49 46 45 45 44 41 40 39 37 36 35 34 34 33 32 32 31 30 31 32 32 32 32 31 30 29 28 30 31 31 29 30 31 28 26 27 27 26 24 22 22 22 20 19 20 20 19 22 24 24 23 24 25 27 27 27
44 47 49 46 42 41 46 49 49 48 46 45 43 42 41 39 38 37 35 34 34 33 33 33 32 32 32 32 32 31 31 31 32 31 30 30 29 28 29 29 29 28 28 28 28 28 28 28 27 25 23 24 24 25 27 28 27 26 27 28 29 30 30
42 43 47 49 47 42 40 42 46 48 48 45 44 44 42 41 40 39 37 36 35 34 34 33 33 33 33 33 33 32 31 32 32 32 32 31 31 31 31 30 30 30 29 27 27 28 29 29 30 29 27 27 28 30 31 30 29 29 29 29 30 31 31
39 40 43 46 48 48 43 40 41 44 46 46 45 45 44 43 42 41 40 38 38 37 36 35 34 34 34 34 34 33 32 32 32 32 33 33 34 34 34 34 33 33 33 32 31 30 29 28 29 30 31 31 32 33 33 32 32 32 32 32 31 31 31
32 38 42 45 48 49 49 47 45 44 44 44 44 44 44 44 44 43 42 42 41 40 40 39 38 37 37 37 36 36 35 34 34 33 33 33 34 34 34 34 33 33 34 34 35 35 35 34 33 34 35 35 35 35 35 34 34 34 34 33 33 33 32
34 36 40 44 47 48 47 48 50 50 48 46 46 46 47 47 46 46 46 45 44 44 43 43 42 41 41 41 40 40 39 38 37 36 35 35 34 34 34 34 34 33 33 34 34 36 36 37 37 37 37 36 36 36 36 36 36 37 36 36 36 36 36
42 40 39 39 41 42 42 42 45 47 48 48 48 49 49 49 48 48 47 47 47 46 46 45 44 44 44 44 44 44 43 43 42 41 40 39 38 38 37 37 37 36 36 36 36 36 36 37 37 38 38 38 38 38 38 38 38 39 39 40 40 40 40
42 40 41 41 39 40 42 42 42 43 45 46 46 47 48 48 48 49 49 48 48 48 48 47 47 45 45 45 46 46 47 47 46 45 44 44 43 43 42 41 41 40 40 39 39 39 39 39 39 40 40 40 40 40 40 40 41 41 41 41 42 42 43

ECMWFFLT1_500_spd_135.txt.gz
Wind_Speed
20 19 18 18 18 18 17 18 18 18 18 17 16 16 16 16 16 16 16 16 15 14 14 13 13 12 11 10 9 9 10 9 9 9 9 9 8 9 9 9 9 9 8 8 7 7 6 6 6 6 6 7 8 8 9 9 9 9 9 8 8 7 7
20 19 19 19 18 18 18 19 19 20 20 19 18 17 17 17 17 17 17 17 16 16 14 13 13 13 13 12 11 10 10 10 10 9 9 8 8 8 9 9 9 9 9 8 8 7 7 7 7 7 7 7 7 8 8 8 8 8 7 7 7 6 6
19 19 19 20 20 19 19 20 21 21 20 20 19 18 18 18 17 17 17 17 17 17 16 15 14 13 13 13 12 12 11 11 11 10 10 9 9 9 9 9 9 8 9 8 8 8 8 8 8 7 8 8 8 8 8 8 8 8 8 7 7 7 6
16 19 21 22 22 21 21 21 22 22 21 21 21 20 19 19 18 17 17 17 17 18 18 17 15 14 14 13 13 12 12 12 12 12 11 10 10 10 9 9 9 8 8 8 9 9 9 9 8 8 9 9 9 9 9 9 9 9 9 9 9 8 8
15 17 21 24 24 22 21 22 23 23 23 22 22 21 20 20 19 18 17 17 17 17 18 17 16 16 15 14 13 13 13 12 13 13 12 12 11 10 10 10 10 9 9 9 9 10 10 10 10 10 10 10 10 10 10 10 10 10 10 10 10 10 9
16 15 16 20 22 22 22 22 23 24 25 24 23 23 21 20 20 19 19 18 18 17 17 17 17 17 17 17 15 14 13 13 13 13 13 13 12 12 12 11 11 11 11 11 11 12 12 12 12 12 12 12 12 12 12 11 11 11 11 11 11 10 10
16 15 14 15 17 20 22 24 24 25 26 26 25 24 22 21 21 21 20 19 18 17 17 17 17 18 18 18 17 16 15 15 14 14 14 14 14 13 13 13 13 13 13 14 14 14 14 14 13 13 13 13 12 13 13 13 12 12 12 11 11 10 10
14 16 17 17 16 17 19 23 27 28 27 27 26 24 23 22 22 22 21 20 19 18 17 17 17 17 18 18 18 18 18 17 16 16 16 16 16 15 15 15 15 15 15 16 16 16 15 15 15 15 14 14 14 14 13 13 13 12 12 12 11 11 10
16 16 17 18 18 18 17 19 25 28 27 27 26 25 23 23 23 23 22 22 21 19 19 18 18 17 17 18 18 18 18 18 18 18 18 18 17 17 17 17 17 17 17 17 17 17 17 16 16 16 16 15 15 15 15 14 14 13 13 13 12 11 11
18 17 18 19 19 18 17 17 20 23 24 24 24 24 23 22 22 22 23 22 22 21 21 21 20 19 18 18 18 18 18 19 20 20 20 19 19 18 18 18 18 18 18 18 18 18 18 17 18 17 17 17 16 16 16 16 15 14 14 13 13 12 12
19 18 19 20 19 18 18 18 19 19 21 22 22 23 22 22 22 22 22 22 22 22 23 23 22 21 21 20 19 19 18 19 20 20 21 21 21 20 20 20 19 19 20 20 19 19 18 19 19 19 18 18 18 17 17 17 16 16 15 15 14 13 13
20 20 20 20 20 19 19 19 18 18 20 22 24 23 22 22 22 22 22 22 21 22 23 23 24 24 24 23 23 22 21 21 21 21 21 22 22 22 22 22 21 21 21 21 21 21 21 20 20 20 19 19 19 19 18 18 17 17 16 15 15 15 15
21 21 22 22 21 21 21 21 20 19 19 22 24 24 23 23 23 23 23 23 22 22 22 23 24 25 26 26 26 26 25 24 23 23 23 23 23 23 23 23 23 23 23 23 23 23 23 23 22 22 21 21 20 20 19 19 18 18 17 17 17 17 16
22 22 23 24 24 23 22 21 21 20 20 21 22 24 24 25 25 24 24 24 24 23 23 24 25 26 26 27 28 28 28 28 27 26 25 25 24 24 24 24 24 24 25 25 25 24 25 24 24 23 22 21 21 22 22 21 20 19 19 19 19 18 17
24 24 24 24 25 25 24 22 21 21 20 21 21 22 23 24 25 25 26 26 25 25 25 25 26 27 27 27 27 28 29 29 29 29 28 27 26 26 25 25 25 25 26 27 27 26 26 25 25 24 23 23 22 23 24 23 22 22 21 20 21 21 20
28 28 28 26 26 27 25 24 23 22 21 20 21 21 20 20 21 23 25 26 27 27 27 27 28 28 28 28 28 28 28 27 28 29 29 30 29 28 28 28 27 26 26 27 27 27 27 26 27 26 25 25 25 24 25 25 24 24 23 22 23 23 22
30 30 30 28 26 27 27 26 24 22 21 20 19 19 19 18 19 21 23 25 27 28 28 28 29 31 32 30 29 29 28 27 27 27 28 29 30 30 30 30 29 28 28 27 27 27 27 28 28 28 28 28 28 28 28 26 25 25 25 24 24 24 23
32 31 33 31 26 26 27 27 25 24 22 21 21 20 20 20 20 22 23 25 26 27 27 27 28 31 34 33 31 30 30 28 27 27 27 28 28 29 30 30 30 30 30 30 29 29 29 30 30 30 30 30 30 30 30 28 27 28 27 25 25 25 25
33 32 34 35 31 27 27 28 28 26 24 23 23 23 22 22 22 23 23 24 24 24 25 25 26 27 30 31 31 31 31 31 30 29 29 29 28 28 29 29 29 31 32 32 32 31 32 32 32 32 33 32 31 32 30 29 29 30 29 28 27 27 27
35 34 35 38 36 31 27 27 28 27 27 26 26 25 25 24 24 23 22 23 24 24 24 24 24 25 26 28 29 31 33 33 33 32 32 31 31 31 30 29 28 30 31 32 33 34 34 35 35 35 35 34 33 32 30 29 31 31 30 30 30 29 29
36 35 34 36 37 33 28 28 29 28 29 30 29 28 27 27 26 25 24 24 25 26 26 26 25 25 25 26 27 29 32 34 35 34 34 34 34 34 32 31 31 32 33 32 33 34 36 37 38 38 38 37 36 34 31 31 32 32 32 32 31 30 30
35 34 32 32 34 34 30 28 29 30 30 30 31 30 30 29 29 28 28 28 27 28 29 28 28 27 26 26 26 28 30 34 36 37 37 36 36 35 34 33 34 35 36 36 36 36 37 39 40 40 40 40 39 35 33 34 34 33 34 33 32 32 31
34 32 30 28 29 33 33 28 27 30 31 31 32 31 31 31 31 31 32 31 31 30 30 30 30 30 29 28 29 29 29 32 34 36 37 36 35 35 36 36 37 37 37 37 38 39 40 41 42 40 37 38 40 37 36 38 38 36 35 34 33 33 32
36 33 32 30 28 31 33 31 29 30 31 33 33 33 33 33 33 33 34 34 33 33 33 32 32 32 32 31 31 32 31 31 31 31 34 35 35 36 37 37 36 36 36 36 37 39 40 41 44 43 39 40 41 38 37 40 40 39 37 36 36 35 34
37 35 36 35 33 32 33 34 33 33 33 35 35 34 34 34 34 35 35 35 35 34 34 35 34 34 33 32 33 33 32 31 30 29 31 33 34 35 37 37 36 36 37 37 36 38 39 40 41 42 42 44 44 40 39 42 43 42 41 39 38 37 36
38 37 37 38 37 36 36 36 37 37 37 37 38 37 36 35 35 36 36 37 36 36 35 35 35 35 34 33 33 33 32 32 31 31 30 30 31 31 33 34 36 37 37 37 36 37 39 39 37 37 39 43 45 43 43 45 45 44 43 42 41 39 38
41 39 38 38 38 39 40 40 40 40 40 40 40 39 38 37 37 37 38 38 38 37 37 36 36 35 35 35 35 34 33 32 33 33 32 31 30 30 28 28 29 32 33 33 33 34 36 36 34 35 37 40 41 42 44 46 45 43 41 41 41 41 40
43 43 42 42 41 41 42 42 42 43 43 42 42 42 40 39 38 39 39 39 39 38 38 38 37 36 36 36 36 35 34 34 35 35 35 34 33 32 30 28 27 26 26 27 27 27 27 28 27 27 29 33 35 38 41 44 43 40 39 39 39 40 40
42 43 44 44 43 43 43 43 43 44 45 44 44 44 43 41 40 39 40 39 39 39 39 39 39 38 38 37 35 34 33 33 34 35 36 34 31 30 31 31 30 28 27 26 26 25 24 23 21 20 21 23 25 26 30 36 39 39 39 38 38 37 37
41 41 42 43 43 43 43 43 44 45 45 45 46 46 46 44 42 41 41 41 40 40 39 40 40 39 39 38 37 37 36 34 33 34 35 34 31 29 31 33 32 31 30 29 28 28 27 26 25 23 22 21 20 19 20 24 28 32 34 35 36 36 37
41 41 41 43 43 42 43 44 45 46 46 46 46 47 46 46 44 43 42 42 42 41 40 41 41 40 39 38 37 36 35 35 35 34 33 34 33 31 30 31 32 31 31 31 31 31 30 30 28 26 24 22 22 21 18 16 16 19 22 25 27 29 30
42 41 41 42 42 42 43 43 44 46 47 47 48 48 47 47 46 45 44 44 44 42 41 41 40 39 38 37 36 35 34 35 35 32 31 32 32 30 28 28 29 30 30 29 29 29 28 27 27 25 24 23 22 21 19 16 15 15 15 16 19 21 21
40 40 41 42 42 43 44 44 45 46 47 48 48 48 48 49 48 46 45 46 45 44 44 42 41 40 38 37 36 36 36 36 35 32 31 31 30 29 29 29 30 29 28 26 27 27 25 26 26 26 26 27 26 25 23 20 19 19 19 21 23 24 25
38 38 39 40 42 44 45 45 46 47 48 47 46 46 46 49 51 49 48 47 47 46 45 44 42 41 40 38 36 36 35 35 34 32 32 31 30 29 31 32 32 30 28 27 28 28 27 27 28 27 27 27 28 29 28 27 27 26 26 28 29 29 29
42 40 37 35 36 39 42 43 44 47 48 48 46 45 45 48 51 52 50 49 48 47 46 45 43 42 41 39 37 36 35 34 33 32 31 31 30 29 30 32 32 30 30 31 31 29 28 28 29 29 28 27 26 27 28 29 29 29 29 30 31 32 32
44 43 41 38 36 35 37 40 42 45 47 48 47 46 45 47 52 55 53 51 51 49 47 46 45 43 42 41 39 37 36 34 33 33 32 31 31 30 30 31 31 31 32 34 34 33 32 32 31 32 33 32 30 29 29 29 30 30 31 33 34 34 34
45 44 44 44 42 40 39 39 40 43 46 46 46 46 45 46 52 56 55 52 51 50 48 47 46 44 43 42 40 39 38 37 35 35 34 33 33 32 31 31 31 31 32 34 35 34 34 33 33 34 35 36 36 35 34 34 35 35 36 36 36 36 36
47 46 45 45 45 46 46 43 41 42 46 48 48 47 46 47 50 53 54 52 51 50 49 48 47 45 44 43 42 41 40 40 39 38 37 37 36 36 35 34 34 34 34 34 34 34 34 34 34 34 35 36 37 37 37 37 37 38 38 38 38 38 38

ECMWFFLT1_500_spd_138.txt.gz
Wind_Speed
19 19 18 18 18 18 17 16 16 15 14 14 13 14 14 14 14 13 12 11 11 10 9 9 8 7 5 4 4 5 5 4 4 5 6 6 6 7 6 6 6 6 6 6 6 6 5 6 6 6 6 6 6 6 7 6 7 7 6 5 4 3 2
20 20 19 19 18 18 18 17 16 17 16 16 15 15 15 15 14 14 13 12 11 10 10 9 9 8 7 6 5 5 5 4 4 4 6 6 7 7 7 7 7 6 6 6 6 6 6 6 6 6 6 6 5 6 6 6 6 6 6 6 5 4 3
21 21 20 19 18 17 17 18 18 18 18 18 17 16 16 15 15 15 14 13 13 12 11 10 10 9 8 7 7 6 6 5 4 5 6 7 7 8 8 8 8 7 7 7 7 7 7 6 6 6 6 6 6 6 6 6 6 7 6 6 6 5 5
22 23 22 21 20 19 18 18 19 19 19 19 19 18 17 16 15 15 15 14 14 14 13 11 10 9 9 9 9 8 7 6 6 6 6 7 7 8 8 8 9 9 8 8 8 8 8 8 8 8 8 8 8 8 8 8 8 8 8 7 7 7 7
21 23 24 22 21 20 19 19 19 19 19 20 20 19 18 17 16 15 15 15 15 15 14 13 11 11 10 10 10 9 9 8 8 8 8 8 8 8 8 9 9 9 9 9 9 9 9 8 9 9 9 9 9 9 10 10 10 9 9 9 9 8 8
16 20 23 23 21 20 21 22 21 20 20 21 22 21 20 19 17 16 16 16 16 15 15 14 13 13 13 12 11 10 10 10 10 10 9 9 8 8 8 9 9 10 10 10 10 10 9 9 9 10 10 10 10 10 10 11 11 11 11 11 10 10 10
15 16 20 21 21 22 23 24 23 22 22 22 22 22 22 20 19 18 17 17 16 16 16 15 15 15 15 14 13 12 12 11 11 11 11 10 10 9 9 10 10 10 11 10 10 10 10 10 10 10 10 11 11 11 11 11 11 11 12 12 11 11 11
18 18 20 20 19 21 24 26 24 22 22 23 23 23 22 20 19 18 18 18 17 16 16 16 15 15 15 15 14 14 14 13 12 12 12 12 11 11 11 11 11 11 11 11 11 11 11 11 10 11 11 12 12 12 12 13 13 13 13 12 13 12 12
18 19 20 20 18 18 21 25 25 24 24 23 23 24 23 21 20 19 19 19 18 17 16 15 15 14 14 15 15 15 15 15 14 14 13 13 13 13 13 12 12 12 12 12 12 12 12 12 12 12 13 13 13 13 13 14 14 13 13 13 13 13 12
17 18 19 20 19 17 18 20 21 22 24 24 25 25 24 22 21 20 20 20 19 17 16 16 16 15 14 15 15 15 16 16 16 15 15 15 15 15 14 14 13 13 13 13 13 13 13 14 14 14 14 14 15 15 15 15 14 14 13 14 14 14 13
19 19 20 21 21 21 19 17 16 17 20 24 28 27 25 23 22 21 20 19 19 19 18 17 17 16 15 16 15 15 16 16 16 17 17 16 16 16 16 16 15 15 15 14 14 14 14 14 15 15 16 16 16 16 16 16 15 15 15 15 15 15 14
22 23 23 21 20 22 22 18 17 16 15 19 25 27 26 24 23 22 19 18 19 19 19 19 18 18 17 17 16 16 16 17 17 17 17 18 18 18 18 18 17 17 17 15 16 16 15 15 15 16 17 17 17 17 17 16 16 17 17 17 16 16 15
25 24 26 26 22 21 22 20 19 18 16 15 17 21 23 23 22 22 20 18 17 17 18 19 20 20 19 19 19 19 18 18 18 18 18 18 19 20 20 20 19 19 19 18 18 18 17 17 17 17 17 18 17 17 17 17 18 17 17 17 17 17 16
29 26 25 27 25 22 21 20 20 20 19 17 15 16 19 21 22 21 20 20 19 18 18 19 20 20 20 21 22 22 22 21 21 20 21 20 20 20 21 21 21 21 21 20 20 20 19 19 18 18 18 18 18 18 18 19 19 18 18 18 18 18 18
26 25 24 25 26 25 22 20 21 21 22 21 19 18 19 21 22 22 22 22 20 20 20 20 21 21 21 22 22 23 24 24 24 24 23 23 23 23 22 22 22 21 21 22 22 22 22 21 21 21 20 20 21 20 20 20 19 19 20 20 20 20 20
20 20 21 21 23 25 25 23 22 23 24 23 22 21 20 21 23 23 24 24 23 22 22 22 23 22 22 22 22 24 25 25 26 26 25 25 26 26 25 24 23 22 22 22 23 23 23 23 23 23 23 23 24 23 21 20 20 21 21 21 21 22 22
19 16 17 18 19 20 23 25 27 27 26 25 24 24 24 24 25 25 26 26 25 25 25 25 26 24 22 23 23 24 25 26 27 28 27 28 28 28 28 26 25 25 25 24 23 23 23 24 25 25 24 25 26 25 23 22 23 23 22 22 23 23 23
23 21 21 22 21 20 20 25 31 32 31 29 28 29 29 28 28 28 27 25 24 25 26 28 28 26 24 25 25 26 27 27 28 28 28 29 28 26 25 25 26 27 27 26 26 26 26 26 26 26 26 27 28 27 26 25 26 26 25 25 24 23 24
31 30 29 28 26 24 22 23 26 29 30 30 31 32 33 33 33 31 29 26 23 22 24 26 28 28 27 27 29 30 29 29 30 29 28 27 25 23 23 24 25 25 26 27 28 27 28 28 28 29 28 29 30 28 26 27 28 28 28 28 27 26 26
35 35 34 33 31 30 27 24 24 25 27 27 26 27 28 29 29 27 25 24 23 23 24 27 28 29 28 27 29 30 29 28 29 29 29 27 24 22 25 26 25 25 26 27 28 28 29 29 29 29 30 31 32 29 27 27 29 30 30 30 30 30 29
39 37 35 35 35 35 32 29 27 28 29 28 26 25 25 25 23 21 22 24 25 26 27 29 28 28 26 26 27 28 25 24 25 26 28 29 26 25 26 28 27 27 27 28 29 30 28 26 25 28 30 32 32 29 28 29 30 31 32 31 31 31 31
41 38 35 35 36 37 37 35 34 33 33 31 29 27 28 26 22 22 25 26 27 28 29 29 28 27 28 28 28 28 24 21 22 24 25 26 26 26 27 29 29 29 29 30 32 32 29 26 26 29 31 32 30 29 30 31 33 34 35 34 33 33 33
40 39 37 36 36 36 37 38 38 38 36 35 32 29 30 30 26 25 26 27 29 31 31 29 28 28 28 28 29 29 24 20 20 24 25 25 25 25 26 28 30 31 32 33 34 34 32 29 29 31 33 34 33 33 34 34 35 36 36 36 36 35 34
38 37 35 35 36 37 37 38 39 40 40 39 36 34 35 34 32 32 31 32 33 34 34 32 31 30 29 28 30 31 28 24 23 25 27 27 26 24 23 24 28 31 34 35 36 36 34 32 32 32 33 35 36 37 38 38 40 40 39 38 38 39 38
34 33 32 31 32 36 38 40 41 41 42 41 39 37 37 36 35 35 35 35 36 36 36 35 34 33 32 30 31 32 32 30 27 26 27 28 26 24 22 22 24 28 31 34 36 37 35 34 35 35 34 35 36 36 38 39 40 42 42 42 41 41 40
29 30 30 30 31 33 36 39 41 42 42 41 39 37 36 36 36 37 37 37 37 37 36 36 36 36 34 33 33 33 33 32 31 29 27 26 27 26 25 24 25 26 28 31 33 36 36 35 36 36 34 35 35 36 38 38 37 38 40 41 42 43 42
28 27 29 30 31 34 35 37 39 40 40 40 39 37 37 37 36 37 39 39 38 38 38 38 38 38 37 36 35 34 34 33 33 32 29 27 28 28 27 28 27 27 28 28 29 31 32 33 36 36 34 33 34 35 36 36 36 37 37 38 40 42 44
35 32 32 34 34 36 37 38 39 39 39 40 41 39 37 38 38 39 40 40 39 39 38 38 39 39 39 39 37 36 36 35 34 34 32 30 30 29 29 30 30 30 29 27 27 27 26 27 30 33 33 31 30 31 32 31 31 32 33 35 38 41 43
41 38 36 36 36 37 39 39 39 40 40 41 42 40 39 39 41 41 42 41 40 39 39 39 40 40 41 41 40 39 38 36 35 35 34 33 31 30 31 31 32 32 31 29 29 29 28 27 26 27 29 27 25 25 24 22 23 25 26 28 32 36 39
42 40 37 35 35 37 39 39 39 39 41 42 43 43 43 43 43 43 43 43 42 41 40 40 41 41 42 42 42 41 39 38 37 36 35 34 33 31 30 29 29 30 30 30 30 30 29 29 27 27 28 28 26 24 21 17 19 24 24 23 24 28 32
41 41 40 38 37 38 38 39 40 40 41 42 43 43 44 44 45 45 44 44 44 43 43 42 41 41 41 42 42 41 40 40 39 37 35 34 34 32 30 29 29 30 30 30 30 30 30 30 29 29 30 31 30 30 29 26 25 25 25 22 20 22 27
40 39 37 35 38 42 41 40 41 41 40 41 42 42 43 43 44 45 45 45 45 45 45 44 43 42 42 42 41 41 41 41 40 38 37 36 35 35 34 33 32 31 31 31 31 31 30 29 29 29 31 32 34 34 33 30 27 25 24 21 18 18 21
41 40 37 30 30 36 41 41 41 41 40 41 42 42 43 43 43 43 44 44 45 46 47 46 45 44 43 42 42 42 42 42 41 40 38 36 34 34 33 32 31 30 29 29 30 30 29 28 27 27 27 29 31 31 29 26 24 23 22 21 18 16 15
42 43 45 41 34 32 36 40 41 42 41 42 42 43 44 44 44 44 43 44 45 46 47 47 46 45 45 44 43 43 42 42 41 40 38 36 35 35 33 31 29 29 28 28 28 29 28 27 25 25 25 26 26 27 27 25 24 23 24 23 22 19 18
44 44 49 51 44 35 34 37 40 42 43 43 42 43 44 44 44 43 43 43 44 45 45 45 45 45 45 45 44 43 44 44 42 40 39 38 39 40 38 35 32 30 29 28 28 28 28 27 26 26 27 26 25 25 26 26 25 24 24 25 26 27 27
45 44 47 49 45 38 35 36 37 40 42 43 42 42 43 44 44 43 42 42 43 44 44 44 44 45 45 45 44 45 45 45 43 41 40 40 40 41 40 38 36 34 32 31 30 31 31 30 29 29 29 28 26 26 27 27 27 26 26 26 26 27 28
44 45 46 47 45 42 40 38 38 39 40 41 39 39 39 41 42 43 42 42 43 44 44 43 42 43 44 45 46 47 46 45 44 44 43 42 41 41 39 38 37 36 34 33 32 32 32 31 30 30 30 30 29 29 30 30 31 31 31 31 30 30 29
42 43 44 46 45 45 44 43 42 43 43 42 40 37 36 36 37 40 42 42 42 43 43 43 43 42 42 45 47 47 47 47 47 48 47 46 44 42 41 39 38 37 36 35 34 33 33 32 31 31 31 31 31 31 32 33 33 33 33 33 33 34 34

ECMWFFLT1_500_spd_141.txt.gz
Wind_Speed
22 20 19 18 17 16 16 14 14 13 13 13 13 13 14 14 13 13 13 12 12 11 10 10 9 8 8 9 9 8 7 7 7 7 8 8 8 9 8 9 9 8 8 9 9 9 9 10 11 11 12 11 11 12 12 12 12 12 11 10 9 8 7
22 21 20 19 18 17 16 15 15 14 13 14 14 14 15 15 15 14 13 12 12 12 11 10 10 9 8 9 9 9 7 7 7 7 8 8 8 9 9 9 9 9 8 8 8 9 9 9 9 10 10 11 11 11 11 11 10 10 9 8 7 6 5
19 20 19 19 19 18 18 17 16 16 15 14 14 15 15 16 16 15 14 13 12 12 12 11 11 11 10 9 9 9 9 7 7 7 8 8 9 9 9 10 10 9 9 8 8 8 8 8 8 8 8 9 9 9 9 9 9 8 7 6 5 4 3
18 18 19 19 19 19 19 18 18 18 17 16 15 16 16 16 15 15 14 14 13 12 12 12 12 12 11 10 10 9 9 8 8 8 8 8 8 9 10 10 10 10 10 10 9 8 8 7 7 7 7 7 7 7 7 7 7 7 6 5 4 4 3
17 18 18 18 18 18 18 18 18 19 19 18 16 16 16 16 15 15 15 15 14 14 13 12 12 12 11 11 11 10 9 9 9 8 8 8 8 8 9 10 10 10 10 10 10 9 9 8 7 7 7 7 7 7 7 7 7 6 6 6 5 5 5
14 17 18 18 18 17 18 18 18 19 19 19 18 18 18 17 16 17 16 16 15 14 14 14 13 12 12 11 11 11 10 10 9 9 9 9 8 8 8 9 9 9 9 9 9 10 10 9 9 8 8 8 8 8 8 8 7 7 7 7 7 7 7
11 13 16 19 19 18 19 19 19 19 20 20 20 19 19 18 17 17 17 17 16 15 15 15 15 14 13 12 12 11 11 11 10 10 10 9 9 8 8 8 8 9 9 9 9 9 9 10 10 10 9 9 9 9 9 9 9 9 8 8 8 8 8
14 12 12 15 19 20 20 21 20 20 20 19 19 19 20 19 18 18 18 17 17 16 15 15 15 15 15 14 13 12 11 11 11 10 10 10 9 9 9 8 8 8 9 9 10 9 9 10 10 10 10 10 10 10 10 10 10 10 9 9 9 9 9
19 16 14 14 16 19 20 21 21 21 21 20 20 20 20 21 20 19 18 18 17 17 16 16 15 15 15 15 15 14 13 12 11 11 11 10 10 10 10 9 9 9 9 10 10 10 10 10 10 10 10 10 11 11 11 11 11 11 10 10 10 10 10
21 20 19 17 17 18 20 22 23 23 22 22 22 21 21 21 20 19 19 19 18 18 17 16 15 15 15 15 16 15 15 14 14 13 12 12 11 11 11 10 10 10 10 10 10 10 10 10 10 11 11 10 11 11 11 11 11 11 11 11 11 11 10
23 23 23 21 20 20 21 21 21 21 22 23 23 22 21 20 20 19 18 19 19 18 18 17 16 16 15 15 15 16 16 15 15 15 15 14 13 12 12 11 11 11 11 10 10 10 10 10 11 11 11 11 11 12 12 12 12 12 12 11 11 12 12
25 27 27 25 23 22 21 20 18 18 20 22 22 22 22 21 20 19 18 18 19 18 18 17 17 17 16 16 16 15 15 16 16 17 16 16 15 14 14 13 13 12 12 12 12 12 11 11 11 11 11 11 12 13 13 13 13 12 12 12 12 13 13
23 25 25 24 23 23 22 21 19 17 18 20 20 21 23 23 23 22 20 19 19 19 18 18 19 19 18 17 16 16 16 17 17 17 17 16 16 16 16 15 15 14 14 15 15 14 14 13 13 12 12 13 13 13 13 13 13 13 13 14 14 14 14
22 21 21 20 21 22 22 23 24 22 21 20 20 20 22 23 24 24 22 22 21 20 19 19 19 20 20 19 19 19 19 19 19 18 17 17 16 16 16 16 16 16 16 17 17 16 16 16 15 15 14 15 15 14 14 14 13 14 14 15 15 15 15
21 21 24 25 24 23 23 23 25 26 26 24 22 21 20 20 23 25 25 24 23 22 21 19 19 21 21 21 21 22 23 22 21 20 18 17 16 16 17 17 17 17 17 18 19 19 18 18 18 17 17 17 17 16 15 15 15 15 16 16 16 16 16
23 23 26 28 27 25 25 26 26 27 29 29 27 25 23 21 23 25 26 26 25 24 23 22 21 22 23 24 24 24 24 23 21 20 18 18 18 18 19 19 18 17 18 18 19 20 20 20 20 20 20 19 19 17 17 17 17 18 18 18 18 18 18
21 25 27 29 28 26 26 28 29 29 30 31 31 29 26 24 24 24 25 26 26 25 26 25 25 26 26 26 25 24 23 22 21 21 21 20 21 22 21 21 20 20 20 20 20 21 21 21 21 21 21 20 19 18 19 20 20 19 19 20 20 20 20
20 24 28 29 28 26 26 27 28 29 30 30 29 28 26 26 26 24 23 25 27 27 27 27 27 27 27 26 24 23 21 21 21 21 22 22 23 24 24 23 22 23 23 23 23 23 22 22 22 21 20 20 19 19 21 22 22 21 21 22 22 22 22
19 19 23 25 22 22 23 23 24 27 30 30 29 28 27 27 28 27 26 26 28 29 30 29 28 28 27 26 24 22 21 21 21 23 24 24 24 24 25 25 25 26 26 26 25 24 25 25 25 23 22 20 19 20 22 23 23 23 23 24 24 25 24
20 18 20 21 21 21 22 23 24 25 27 30 31 30 30 30 29 29 30 30 30 31 31 29 27 27 28 27 25 23 23 24 24 25 26 25 24 25 27 27 26 27 28 27 26 26 27 27 26 25 24 23 22 23 24 25 25 25 25 26 26 27 27
23 25 28 30 31 31 31 30 29 29 30 32 34 33 31 31 29 29 31 32 32 32 30 27 26 28 29 27 26 25 24 25 25 25 25 25 24 25 27 28 28 28 28 27 27 27 27 27 26 25 25 24 23 23 24 24 26 27 27 28 28 29 29
23 28 34 37 37 35 34 34 34 34 33 33 34 34 31 30 30 30 32 34 33 31 30 27 27 29 28 25 23 23 23 24 24 24 24 24 23 23 24 28 31 30 29 28 27 27 28 28 28 26 25 25 24 24 24 24 25 26 26 27 28 29 30
27 26 23 25 28 27 29 32 33 33 33 32 34 35 33 32 33 34 35 35 33 31 31 31 30 28 25 22 22 22 23 23 23 23 24 24 24 22 22 25 28 29 28 28 27 27 27 29 30 29 27 27 26 27 26 25 25 27 28 28 29 29 30
32 31 21 14 15 20 25 27 27 28 30 30 32 34 34 32 33 36 37 35 33 31 31 32 31 28 25 23 22 23 24 24 23 21 22 22 22 22 22 22 23 25 26 27 27 27 28 30 31 31 29 28 28 28 28 27 27 28 30 31 31 32 32
31 37 35 23 13 17 23 24 21 21 23 26 29 30 32 31 32 35 36 34 32 30 30 31 30 30 28 26 25 25 26 25 22 20 20 21 22 23 24 24 23 23 24 25 25 25 26 27 28 29 30 30 30 29 29 29 29 29 30 32 33 33 33
31 37 42 38 28 24 25 24 23 18 15 22 27 27 27 29 31 34 36 35 34 33 33 32 31 32 32 28 26 26 26 26 24 22 21 21 22 24 25 25 24 24 25 25 24 23 23 23 24 26 28 30 30 30 30 30 30 31 32 33 34 34 33
34 37 39 38 34 32 32 32 33 26 20 22 25 24 26 28 29 32 34 34 35 36 37 37 37 37 38 33 29 28 27 26 25 23 22 22 23 24 26 27 26 25 26 26 26 24 23 23 23 24 25 26 27 28 30 32 32 33 33 34 35 34 34
35 36 37 34 30 29 31 34 37 36 33 31 27 26 28 29 29 31 32 33 35 37 38 39 39 40 40 38 35 33 31 28 26 23 22 23 24 25 26 27 27 26 27 26 25 24 23 22 22 22 22 22 23 24 27 29 30 31 32 33 34 33 31
36 36 37 38 35 31 30 31 34 37 39 39 36 33 32 31 31 32 31 33 35 36 37 39 39 40 41 39 37 35 33 31 29 26 24 25 25 26 26 26 27 27 27 25 24 24 24 24 24 24 23 23 23 24 24 24 25 26 27 27 27 27 25
40 39 39 40 40 37 33 31 31 33 35 37 38 38 36 34 34 34 33 32 33 34 37 39 39 41 42 41 38 36 34 33 32 31 29 27 27 28 28 28 28 28 27 26 26 27 28 28 28 27 26 26 26 26 25 23 23 23 23 23 24 23 21
41 41 41 42 42 41 38 35 33 32 33 35 37 39 39 38 37 36 36 35 34 34 36 38 39 40 41 41 40 38 36 35 34 33 32 31 30 30 30 29 28 28 28 28 28 28 28 28 27 27 27 26 26 26 26 26 25 25 24 24 24 23 23
41 41 41 42 42 42 41 40 37 36 35 35 36 37 39 39 39 39 39 39 39 38 37 38 39 40 41 42 42 41 39 38 36 34 34 33 32 32 32 31 30 29 29 29 29 29 30 29 28 27 27 27 27 27 28 28 28 27 27 27 28 28 29
40 41 40 40 41 41 39 38 38 38 38 37 38 40 40 40 40 41 41 41 41 41 41 41 41 42 42 43 43 43 42 41 39 38 36 35 34 34 33 33 33 31 31 31 31 31 32 32 32 31 30 30 29 30 30 30 30 29 28 29 31 31 29
38 39 40 40 41 42 40 37 36 36 35 35 37 40 43 43 43 42 42 43 43 43 44 44 44 44 45 45 45 44 44 44 43 41 40 38 37 35 35 35 35 33 32 32 33 34 33 33 33 33 31 30 29 29 29 28 29 28 28 28 28 27 25
36 37 39 39 39 40 40 38 36 36 36 35 34 33 36 40 43 44 43 43 43 44 45 45 45 46 46 47 47 45 45 45 45 43 42 41 39 38 38 38 37 36 33 32 34 35 34 32 32 32 31 30 29 28 28 27 26 26 26 26 26 24 24
36 36 37 37 38 39 40 40 38 37 39 40 39 35 33 34 38 42 44 44 43 43 44 45 45 46 47 47 47 45 45 46 46 46 45 43 41 40 40 39 39 38 35 34 35 34 31 30 30 30 30 29 27 27 27 27 26 26 26 26 26 25 24
37 37 37 37 37 38 40 40 40 40 41 43 43 42 40 38 38 39 42 43 44 43 43 44 44 45 46 46 45 44 45 46 47 46 46 44 43 42 42 41 41 40 38 38 39 38 35 33 32 31 30 29 28 28 30 30 29 28 28 28 27 27 26
38 38 38 38 38 38 38 39 39 39 41 43 44 44 43 41 41 41 42 43 44 44 44 44 44 45 46 45 44 44 44 44 45 44 44 45 44 42 42 41 41 41 41 40 41 42 41 39 39 38 37 36 34 34 35 34 33 31 30 30 30 29 29